Regional Weather Roundup
Issued by NWS

Home | Current Version | Previous Version | Graphics & Text | Print | Product List | Glossary Off
Versions: 1 2 3 4 5 6 7 8 9 10 11 12 13 14 15 16 17 18 19 20 21 22 23 24 25 26 27 28 29 30 31 32 33 34 35 36 37 38 39 40 41 42 43 44 45 46 47 48 49 50

535
ASUS43 KDMX 230806
RWRIA

WEATHER ROUNDUP FOR IOWA
NATIONAL WEATHER SERVICE DES MOINES IA
200 AM CST TUE JAN 23 2018

NOTE: "FAIR" INDICATES FEW OR NO CLOUDS BELOW 12,000 FEET WITH NO
SIGNIFICANT WEATHER AND/OR OBSTRUCTIONS TO VISIBILITY.

* - THESE STATIONS ARE NOT NWS STATIONS...THUS NOT UNDER NWS
QUALITY CONTROL.  THEY ALSO DO NOT REPORT WEATHER SUCH
AS PRECIPITATION OR FOG.

IAZ001>003-012>014-020>022-031>034-043>046-230900-
   NORTHWEST IOWA

CITY           SKY/WX    TMP DP  RH WIND       PRES   REMARKS
CARROLL *      CLOUDY    28  27  93 N23G32    29.86R WCI  14
CHEROKEE *     CLOUDY    27  25  93 N17G23    29.92R WCI  14
DENISON *      CLOUDY    28  25  86 N21G30    29.92R WCI  15
LE MARS *      CLOUDY    27  23  86 NW17      29.97R WCI  14
ORANGE CITY *  CLOUDY    27  25  93 N12G20    29.95R WCI  16
SHELDON *      CLOUDY    25  23  93 NW22      29.92R FOG     WCI  10
SIOUX CITY     MIX PCPN  25  23  92 NW21      29.97R WCI  11
SPENCER        MIX PCPN  26  22  84 N20       29.89R WCI  12
STORM LAKE *   CLOUDY    27  25  93 N28G33    29.88R WCI  11
$$

IAZ055>058-069>071-079>083-090>094-230900-
   SOUTHWEST IOWA

CITY           SKY/WX    TMP DP  RH WIND       PRES   REMARKS
ATLANTIC *     MIX PCPN  28  28 100 NW22      29.89R WCI  15
AUDUBON *      CLOUDY    28  25  86 NW15G25   29.89R WCI  17
CLARINDA *     CLOUDY    30  28  93 N20G26    29.91R WCI  18
COUNCIL BLFS * CLOUDY    28  28 100 NW20G29   29.92R WCI  15
CRESTON *      CLOUDY    30  27  86 NW26G39   29.84R WCI  16
HARLAN  *      CLOUDY    28  28 100 N26G32    29.92R WCI  13
LAMONI         FLURRIES  30  25  81 NW22G32   29.79R WCI  17
RED OAK *      CLOUDY    30  28  93 N16G24    29.91R WCI  19
SHENANDOAH *   CLOUDY    30  28  93 NW20G26   29.93R WCI  18
$$

IAZ047>049-059>061-072>074-084-230900-
   CENTRAL IOWA

CITY           SKY/WX    TMP DP  RH WIND       PRES   REMARKS
AMES           CLOUDY    29  28  96 N24G33    29.80R WCI  15
ANKENY *       LGT RAIN  28  27  93 NW20G28   29.80R WCI  15
BOONE *        LGT RAIN  28  27  93 N24G32    29.80R WCI  14
CHARITON *     CLOUDY    30  27  86 NW22G31   29.76R WCI  17
DES MOINES     FLURRIES  30  25  81 N17G28    29.80R WCI  18
GRINNELL*      CLOUDY    30  27  91 NW25G32   29.71R WCI  15
KNOXVILLE *    CLOUDY    30  27  86 NW21G29   29.74R WCI  17
MARSHALLTOWN   CLOUDY    28  25  88 N26G35    29.73R WCI  13
NEWTON *       CLOUDY    30  27  86 N23G32    29.74R WCI  17
PELLA *        CLOUDY    31  27  87 NW17G29   29.75R WCI  19
PERRY *        FLURRIES  30  28  90 N21G29    29.84R WCI  17
$$

IAZ004>006-015-016-023>025-035-036-230900-
   NORTH CENTRAL IOWA

CITY           SKY/WX    TMP DP  RH WIND       PRES   REMARKS
ALGONA *       LGT SNOW  27 N/A N/A N20G32    29.83R WCI  13
CLARION *      CLOUDY    28  28 100 N25G35    29.80R FOG     WCI  14
ESTHERVILLE    CLOUDY    24  22  91 N23G33    29.87R WCI   9
FORT DODGE *   FLURRIES  28  24  85 N16G24    29.83R WCI  16
MASON CITY     MIX PCPN  26  22  84 N25       29.79R FOG     WCI  11
FOREST CITY *  CLOUDY    28  27  93 N21G29    29.80R WCI  15
WEBSTER CITY * LGT RAIN  28  25  86 N26G35    29.79R WCI  13
IOWA FALLS *   CLOUDY    29  26  86 N24G30    29.78R WCI  15
$$

IAZ007>011-017>019-026>030-037>042-050>054-066-230900-
   NORTHEAST IOWA

CITY           SKY/WX    TMP DP  RH WIND       PRES   REMARKS
CEDAR RAPIDS   LGT RAIN  34  32  92 NW18G26   29.63R WCI  23
CHARLES CITY * LGT RAIN  27  27 100 N22G32    29.73R WCI  12
CLINTON *      MIX PCPN  34  33  96 N16       29.57R WCI  24
DECORAH *      LGT SNOW  28  27  93 N18       29.65R WCI  16
DUBUQUE        LGT SNOW  32  30  92 N13       29.58R FOG     WCI  22
MONTICELLO *   CLOUDY    34  34 100 N10       29.61R WCI  26
OELWEIN *      CLOUDY    30  30 100 N20G30    29.67R WCI  18
WATERLOO       CLOUDY    28  25  88 N22       29.70R WCI  14
$$

IAZ064-065-067-068-078-230900-
   EAST CENTRAL IOWA

CITY           SKY/WX    TMP DP  RH WIND       PRES   REMARKS
DAVENPORT      CLOUDY    35  33  92 W12       29.59R FOG     WCI  27
IOWA CITY      CLOUDY    37  32  82 NW15      29.64R WCI  28
MT. PLEASANT * CLOUDY    34  34 100 NW12G20   29.63R WCI  25
MUSCATINE *    CLOUDY    36  34  93 NW9       29.61R WCI  29
QUAD CITIES    CLOUDY    36  33  89 W8        29.57R WCI  30
$$

IAZ062-063-075>077-085>089-095>099-230900-
   SOUTHEAST IOWA

CITY           SKY/WX    TMP DP  RH WIND       PRES   REMARKS
BURLINGTON     CLOUDY    36  33  89 W9        29.61R WCI  29
FAIRFIELD *    CLOUDY    34  34 100 NW18G26   29.65R WCI  23
FORT MADISON * CLOUDY    36  36 100 NW10      29.63R WCI  28
KEOKUK *       CLOUDY    36  36 100 NW12      29.63R WCI  27
OSKALOOSA *    LGT SNOW  31  30  94 NW23G30   29.70R WCI  18
OTTUMWA        LGT SNOW  32  29  88 NW24G30   29.69R FOG     WCI  19
WASHINGTON *   CLOUDY    34  34 100 NW17      29.64R WCI  23
$$

ABBREVIATIONS USED IN REMARKS
   TC - TEMPERATURES IN CELSIUS
  WCI - WIND CHILL INDEX
   HX - HEAT INDEX
  VSB - VISIBILITY
$$





USA.gov is the U.S. government's official web portal to all federal, state and local government web resources and services.